Weather observations for the past three days for
Defiance, Defiance Memorial Airport
Imperial (Metric)
Date Time (edt) Wind (mph) Vis. (mi.) Weather Sky Cond. Temperature (ºF) Relative Humidity Wind Chill (°F) Heat Index (°F) Pressure Precipitation (in)
Air Dwpt 6 hour altimeter (in) sea level (mb) 1 hr 3 hr 6 hr
Max. Min.
19 07:53 Calm 10.00 Fair CLR 60.1 57 60.1 53.1 90% 30.22 1023.0
19 06:53 Calm 10.00 Fair CLR 53.1 53.1 100% 30.2 1022.4
19 05:53 Calm 10.00 Fair CLR 54 53.1 97% 30.19 1022.3
19 04:53 Calm 10.00 Fair CLR 54 53.1 97% 30.18 1021.9
19 03:53 Calm 10.00 Fair CLR 55.9 54 93% 30.18 1021.7
19 02:53 Calm 10.00 Fair CLR 55 54 96% 30.18 1021.7
19 01:53 Calm 10.00 Fair CLR 57 54 73.9 55.9 90% 30.18 1021.9
19 00:53 Calm 10.00 Fair CLR 57 54 90% 30.18 1021.8
18 23:53 Calm 10.00 Fair CLR 61 54 78% 30.17 1021.4
18 22:53 N 3 10.00 Fair CLR 62.1 55 78% 30.16 1021.1
18 21:53 N 6 10.00 Fair CLR 63 55 76% 30.15 1020.7
18 20:53 N 6 10.00 Fair CLR 68 54 61% 30.14 1020.5
18 19:53 N 9 10.00 Overcast OVC060 73.9 54 77 72 50% 30.14 1020.2
18 18:53 NE 9 10.00 Partly Cloudy SCT050 75 54 48% 78 30.13 1020.1
18 17:53 N 13 G 17 10.00 Mostly Cloudy BKN050 75 54 48% 78 30.13 1020.0
18 16:53 N 10 10.00 Partly Cloudy SCT055 75 54 48% 78 30.13 1020.0
18 15:53 N 8 10.00 Mostly Cloudy BKN050 73 53.1 50% 30.14 1020.4
18 14:53 N 7 10.00 A Few Clouds FEW047 75 54 48% 78 30.14 1020.3
18 13:53 Vrbl 6 10.00 Partly Cloudy SCT046 73.9 55 73.9 61 52% 30.15 1020.5
18 12:53 NW 7 10.00 Mostly Cloudy BKN044 73 54 51% 30.15 1020.7
18 11:53 N 12 10.00 A Few Clouds FEW032 71.1 55 57% 30.15 1020.7
18 10:53 N 8 10.00 A Few Clouds FEW023 69.1 57 66% 30.15 1020.5
18 09:53 N 7 10.00 Fair CLR 66.9 57 71% 30.14 1020.4
18 08:53 N 9 10.00 Fair CLR 63 55.9 78% 30.13 1020.1
18 07:53 N 6 10.00 Fair CLR 61 55 61 57 81% 30.11 1019.4
18 06:53 N 6 10.00 Fair CLR 57 54 90% 30.09 1018.8
18 05:53 N 7 10.00 Fair CLR 57 54 90% 30.07 1018.1
18 04:53 N 8 10.00 Fair CLR 57.9 54 87% 30.06 1017.5
18 03:53 N 6 10.00 Fair CLR 59 54 83% 30.05 1017.4
18 02:53 NW 7 10.00 Fair CLR 60.1 55 84% 30.05 1017.1
18 01:53 NW 9 10.00 Fair CLR 61 54 77 61 78% 30.04 1016.9
18 00:53 NW 6 10.00 Fair CLR 62.1 54 75% 30.04 1016.7
17 23:53 N 6 10.00 Fair CLR 63 54 73% 30.02 1016.2
17 22:53 NW 8 10.00 Fair CLR 66 53.1 63% 30.01 1015.7
17 21:53 NW 8 10.00 Fair CLR 69.1 54 59% 29.99 1015.1
17 20:53 NW 13 10.00 Fair CLR 73 55 53% 29.97 1014.5
17 19:53 NW 14 G 23 10.00 Fair CLR 77 57.9 84 75.9 52% 79 29.95 1013.7 0.01
17 18:53 NW 14 10.00 Fair CLR 81 59 47% 81 29.92 1012.8
17 17:53 NW 18 G 28 10.00 Fair CLR 82.9 60.1 46% 83 29.9 1012.1
17 16:53 NW 8 10.00 Partly Cloudy FEW039 FEW047 SCT060 82 64.9 56% 84 29.9 1011.9 0.01
17 15:53 Vrbl 6 10.00 Partly Cloudy SCT080 80.1 68 67% 83 29.91 1012.2 0.01
17 14:53 Vrbl 3 10.00 A Few Clouds FEW046 82.9 64 53% 84 29.9 1011.9
17 13:53 N 3 10.00 A Few Clouds FEW080 81 62.1 81 72 53% 82 29.92 1012.6
17 12:53 N 6 10.00 Overcast OVC060 79 62.1 56% 80 29.93 1012.8
17 11:53 Calm 10.00 Overcast BKN060 OVC090 79 61 54% 80 29.92 1012.7
17 10:53 N 5 10.00 Mostly Cloudy BKN060 80.1 62.1 54% 81 29.91 1012.4
17 09:53 Vrbl 3 10.00 Fair CLR 77 64.9 66% 79 29.9 1011.9
17 08:53 N 5 10.00 Fair CLR 75 69.1 82% 75 29.91 1012.2
17 07:53 N 5 5.00 Fog/Mist CLR 72 71.1 73.9 71.1 97% 29.89 1011.7 0.01
17 06:53 Calm 10.00 Mostly Cloudy BKN005 71.1 69.1 94% 29.88 1011.4
17 05:53 N 3 10.00 Light Rain SCT010 BKN048 BKN065 72 70 94% 29.87 1010.8 0.01
17 04:53 W 5 10.00 Overcast BKN015 BKN042 OVC110 73 71.1 94% 29.85 1010.3
17 03:53 SW 3 10.00 Light Rain FEW020 SCT075 SCT110 73 71.1 94% 29.85 1010.3
17 02:53 Calm 10.00 Mostly Cloudy SCT021 BKN070 BKN080 73 71.1 94% 29.86 1010.5
17 01:53 Vrbl 3 10.00 Mostly Cloudy BKN021 BKN029 73.9 71.1 82.9 73 91% 29.86 1010.7
17 00:53 SW 5 10.00 Fair CLR 73 69.1 87% 29.87 1011.0
16 23:53 Vrbl 3 10.00 Fair CLR 73.9 71.1 91% 29.85 1010.4
16 22:53 SW 3 10.00 Fair CLR 77 73 88% 78 29.84 1009.8
16 21:53 Calm 10.00 Light Rain FEW028 SCT100 SCT120 79 73 82% 82 29.83 1009.5
16 20:53 SW 3 10.00 A Few Clouds FEW080 80.1 72 76% 84 29.82 1009.3
16 19:53 W 3 10.00 Partly Cloudy FEW036 SCT046 82.9 71.1 86 82 67% 88 29.81 1008.9
16 18:53 Vrbl 7 10.00 Fair CLR 84 71.1 65% 89 29.81 1008.9
16 17:53 SW 8 10.00 Overcast FEW036 BKN048 OVC060 82.9 70 65% 87 29.82 1009.2
16 16:53 SW 8 G 18 10.00 Mostly Cloudy BKN034 84.9 70 61% 89 29.83 1009.7
16 15:53 SW 8 G 20 10.00 Mostly Cloudy BKN038 84 70 63% 88 29.83 1009.5
16 14:53 W 8 10.00 Mostly Cloudy BKN037 84.9 70 61% 89 29.81 1009.0
16 13:53 SW 9 G 18 10.00 Partly Cloudy SCT035 84.9 69.1 84.9 72 59% 89 29.83 1009.5
16 12:53 SW 12 G 21 10.00 A Few Clouds FEW032 82.9 68 61% 86 29.83 1009.5
16 11:53 SW 8 G 17 10.00 A Few Clouds FEW030 82 69.1 65% 85 29.84 1009.7
16 10:53 Vrbl 7 10.00 Fair CLR 80.1 69.1 69% 83 29.83 1009.5
16 09:53 Vrbl 7 10.00 Fair CLR 77 68 74% 79 29.83 1009.5
16 08:53 W 8 10.00 Partly Cloudy SCT014 73.9 68 82% 29.83 1009.5
Date Time (edt) Wind (mph) Vis. (mi.) Weather Sky Cond. Air Dwpt Max. Min. Relative Humidity Wind Chill (°F) Heat Index (°F) altimeter (in) sea level (mb) 1 hr 3 hr 6 hr
6 hour
Temperature (ºF) Pressure Precipitation (in)